Wind_Speed
13 13 14 15 15 15 15 14 13 12 11 10 9 9 8 8 8 7 6 5 5 4 2 1 0 1 1 1 2 2 2 3 3 3 3 4 4 4 4 5 5 5 5
10 12 13 13 14 14 14 14 13 12 11 10 9 9 9 8 8 7 7 6 5 4 3 2 1 1 1 1 2 2 2 3 3 3 4 4 4 4 4 4 5 6 6
9 10 11 12 13 14 14 14 13 12 11 10 9 9 8 8 8 7 7 6 6 5 4 3 2 2 1 2 2 3 3 3 3 3 4 4 4 4 5 5 6 6 6
8 9 10 11 11 12 13 13 13 12 11 11 10 9 9 8 8 7 6 6 6 5 4 4 3 3 2 2 2 3 3 4 4 4 4 4 4 5 6 6 6 6 7
7 9 10 10 11 12 12 12 12 11 11 10 10 9 9 8 8 7 6 6 6 6 5 5 5 5 4 4 4 4 4 5 5 5 5 5 5 6 6 6 6 7 8
8 9 9 10 11 11 12 11 11 11 10 10 10 9 9 9 7 7 6 6 6 6 6 6 6 6 6 6 6 5 5 5 5 5 5 6 6 6 7 7 7 7 8
8 8 9 10 10 11 11 11 11 10 10 9 10 10 9 9 8 7 7 7 7 7 7 7 7 7 6 6 6 6 5 5 6 6 6 6 6 6 7 8 8 8 9
9 9 9 10 10 11 11 11 10 9 9 9 9 10 9 9 8 8 8 8 8 8 8 8 8 7 6 6 6 6 6 5 5 6 6 7 7 7 8 8 9 9 9
10 10 11 11 11 11 11 10 9 9 9 9 9 9 9 10 9 9 9 9 9 8 8 9 8 8 7 6 6 6 6 6 7 7 7 7 7 8 8 9 10 10 10
12 12 12 11 11 11 11 11 10 9 9 9 9 9 9 9 9 10 10 9 9 9 9 9 9 8 8 7 7 6 7 7 7 8 8 8 9 9 9 10 10 10 11
13 13 13 13 12 12 11 11 11 11 10 10 10 10 10 10 10 10 10 9 9 9 10 10 10 9 8 8 8 8 9 8 9 9 9 9 9 9 9 9 10 11 12
15 15 15 14 14 13 13 12 12 12 11 11 11 11 11 11 10 11 11 10 10 10 10 10 10 10 9 9 10 10 10 10 10 10 10 10 10 10 11 11 11 11 11
16 16 16 16 15 14 14 13 13 13 12 12 12 12 12 11 11 11 11 10 10 10 11 11 10 10 10 11 11 11 11 11 11 10 10 10 11 12 12 12 12 12 12
18 17 17 17 16 16 15 15 14 14 14 14 14 14 14 13 12 12 12 11 10 11 11 11 11 11 12 12 13 13 12 12 12 11 11 12 12 13 13 13 13 13 13
19 18 18 18 18 17 17 16 16 16 16 15 15 15 15 14 14 13 13 12 11 11 12 12 12 12 13 14 14 14 13 13 12 12 13 13 14 13 14 14 14 14 15
20 19 19 19 19 19 18 18 18 18 17 17 16 16 16 15 15 15 14 13 13 12 12 13 13 14 14 14 15 14 14 14 13 14 14 14 14 15 15 15 16 16 16
21 21 21 20 20 20 20 20 19 19 19 19 18 17 17 17 17 15 14 14 14 13 13 14 14 14 15 15 15 15 15 15 14 14 15 15 15 16 16 16 16 16 16
23 23 23 22 22 22 22 21 21 21 21 20 19 18 18 18 17 16 16 15 15 16 16 16 16 16 16 17 17 16 17 17 17 16 16 16 17 16 16 16 17 18 18
24 24 24 24 23 23 22 22 22 23 23 22 21 20 20 20 19 18 18 18 18 18 19 18 18 18 18 18 18 18 18 18 18 18 18 18 18 17 17 18 19 20 20
25 24 24 24 24 23 24 24 23 23 23 22 22 23 23 22 21 21 21 20 20 20 21 20 20 19 19 19 19 20 20 20 20 20 20 19 19 19 20 20 21 21 21
25 24 24 25 25 24 24 23 23 23 23 23 23 23 24 23 22 22 22 21 22 22 22 21 21 21 21 21 21 21 21 21 21 21 21 21 21 20 21 21 22 22 22
25 24 24 25 25 25 24 23 23 23 24 24 24 24 24 23 22 23 23 23 23 24 23 23 23 23 23 23 22 22 22 22 22 23 23 22 22 22 22 23 24 24 23
26 26 26 26 26 25 24 24 24 24 24 25 25 24 23 23 24 24 24 24 24 24 24 24 24 25 25 24 24 24 23 23 24 24 24 24 23 23 24 24 25 25 24
28 27 27 28 27 27 26 25 25 25 25 26 26 25 25 24 25 25 25 25 25 26 26 26 26 26 26 25 24 23 24 24 25 25 25 25 24 24 25 25 26 26 25
30 29 29 28 28 28 28 27 26 26 27 27 27 26 26 26 27 27 27 27 27 28 28 27 26 27 26 25 25 25 25 25 26 26 25 25 25 25 26 26 26 26 27
31 31 31 30 29 30 29 29 28 28 29 28 28 29 28 28 29 29 29 29 30 29 28 28 27 27 27 27 27 27 27 27 27 27 26 26 27 27 28 27 27 27 28
Wind_Direction
28 28 29 29 29 30 29 29 30 32 33 34 34 34 34 36 36 40 42 40 43 50 48 38 94 224 263 269 291 293 285 284 284 284 281 284 275 264 264 257 252 250 253
21 22 22 24 24 25 27 27 26 27 29 31 31 31 32 32 32 32 34 34 32 38 43 38 21 324 296 290 291 286 281 291 293 292 292 285 282 273 272 267 260 260 261
9 12 14 16 18 20 23 25 23 21 23 26 29 30 30 30 29 28 31 33 28 25 30 27 6 346 319 311 306 295 279 288 287 287 292 293 294 279 275 272 269 267 266
353 357 359 4 8 10 14 19 20 20 18 19 23 25 25 25 24 22 22 25 25 26 23 18 3 345 333 321 311 302 288 290 291 285 283 281 290 288 283 279 272 274 273
336 341 344 350 357 360 3 9 12 14 15 15 17 16 14 16 17 17 14 12 15 15 11 4 0 348 333 322 312 306 298 295 297 288 283 276 276 277 281 278 278 278 277
320 325 330 337 344 349 353 357 1 5 10 11 12 9 7 7 6 5 1 359 2 1 357 352 348 342 334 327 321 314 311 304 303 294 290 283 277 273 274 277 280 278 279
308 312 318 327 334 338 343 347 348 351 358 2 3 3 1 2 2 354 347 344 345 345 341 338 338 335 328 321 319 313 308 306 304 297 291 290 281 273 271 277 276 276 279
293 301 309 317 323 329 334 336 337 340 348 353 356 358 359 358 353 348 342 338 337 336 333 333 333 331 323 320 318 317 310 305 303 295 295 287 277 273 272 275 274 271 276
284 292 300 305 312 315 321 324 325 328 333 340 345 348 351 350 348 343 339 339 337 335 338 341 338 331 325 319 319 315 311 307 298 294 291 289 278 276 280 281 279 277 280
275 282 289 294 303 309 309 314 315 319 323 330 336 338 336 338 339 340 338 336 335 337 336 334 333 331 328 323 317 314 311 305 298 295 291 286 283 282 284 284 279 277 279
272 276 279 285 291 297 300 301 304 310 313 316 321 325 326 330 333 334 334 333 331 331 333 333 332 330 327 324 320 314 310 304 300 296 293 291 286 285 285 285 283 278 278
273 274 274 277 282 286 290 292 296 301 303 305 308 313 318 323 327 330 331 328 327 327 327 327 328 326 324 323 321 315 310 306 302 298 292 292 291 289 287 286 287 285 283
271 273 272 272 275 279 283 287 289 293 296 299 300 303 309 314 317 321 323 322 320 321 322 322 321 320 318 316 315 313 306 303 301 300 294 290 292 294 292 290 289 288 286
269 269 268 270 272 275 278 284 285 289 291 294 297 298 300 303 307 311 313 313 313 312 314 316 314 313 310 309 309 310 306 300 297 297 296 292 291 293 294 293 291 289 289
267 265 265 267 268 270 272 277 279 282 285 289 291 294 296 296 298 302 305 306 306 306 307 309 310 309 307 307 305 307 307 300 295 294 295 295 292 290 292 293 293 293 292
262 261 262 264 266 267 269 272 274 277 279 282 287 290 293 294 296 297 299 302 302 301 302 305 307 308 306 305 304 306 306 301 298 295 294 293 293 290 292 292 291 291 293
259 258 260 263 264 265 266 268 271 273 274 277 281 285 288 291 292 291 296 297 297 300 302 302 303 305 304 304 303 302 306 304 300 297 296 295 292 291 290 294 295 294 293
258 259 261 263 263 263 264 265 268 271 271 271 276 279 283 287 288 287 291 295 297 298 298 298 298 298 298 298 299 299 302 303 302 300 297 296 295 292 293 294 294 293 292
259 259 260 261 261 262 262 264 266 270 272 275 273 274 277 280 284 287 291 294 295 295 294 293 293 294 294 294 294 294 296 298 300 300 298 295 293 293 295 294 294 293 290
257 259 260 260 261 262 262 264 265 266 269 272 273 275 277 281 282 287 287 289 291 293 294 292 291 291 290 290 291 293 294 296 297 297 297 296 294 293 294 295 294 294 292
256 257 258 259 260 262 264 264 263 264 267 270 273 274 277 281 282 284 285 286 288 289 290 290 289 290 288 287 288 290 292 295 297 297 295 294 292 292 294 296 296 295 293
255 255 257 259 259 261 263 265 265 264 265 268 271 274 275 276 278 281 282 284 284 286 288 288 287 289 288 286 287 290 290 292 294 295 294 292 291 291 293 295 295 295 294
254 256 257 259 260 261 263 266 266 266 265 268 269 272 273 274 276 278 280 281 281 283 286 287 287 287 286 285 286 288 289 290 292 293 293 292 292 293 293 294 294 294 293
254 256 257 259 260 261 262 265 265 265 266 268 268 270 272 273 274 276 278 280 282 282 284 284 285 284 285 284 285 286 288 289 291 292 292 293 295 296 294 294 294 293 293
254 255 257 258 258 260 261 262 264 265 266 268 269 269 270 271 273 275 277 279 280 281 283 282 283 283 283 284 286 285 287 289 290 292 293 292 293 294 294 295 294 294 293
254 256 256 257 260 261 262 264 265 266 266 266 268 268 268 269 271 274 277 278 279 278 280 280 281 283 283 284 284 284 285 286 290 291 291 291 292 293 293 292 293 293 293
Height
5931 5929 5927 5925 5923 5920 5918 5915 5913 5911 5909 5907 5905 5904 5903 5902 5901 5900 5899 5898 5897 5896 5895 5895 5894 5894 5894 5893 5893 5893 5893 5893 5892 5892 5892 5892 5891 5891 5891 5891 5891 5891 5891
5932 5930 5928 5926 5924 5922 5919 5917 5914 5912 5910 5908 5907 5905 5904 5903 5902 5901 5900 5899 5897 5896 5896 5895 5895 5894 5894 5893 5893 5893 5892 5892 5892 5892 5891 5891 5891 5890 5890 5890 5890 5890 5890
5933 5931 5929 5927 5925 5922 5920 5918 5915 5913 5911 5909 5908 5907 5905 5904 5903 5901 5900 5899 5898 5897 5896 5895 5895 5894 5894 5893 5892 5892 5892 5892 5891 5890 5890 5890 5890 5889 5889 5888 5888 5888 5889
5933 5932 5930 5928 5926 5923 5921 5918 5916 5914 5912 5910 5909 5908 5906 5905 5903 5902 5901 5900 5899 5897 5896 5895 5895 5894 5893 5893 5892 5891 5891 5891 5890 5889 5889 5889 5888 5888 5888 5887 5887 5887 5887
5933 5931 5930 5928 5926 5924 5922 5919 5917 5915 5913 5911 5910 5908 5907 5905 5904 5902 5901 5900 5899 5898 5896 5895 5894 5894 5893 5892 5891 5890 5890 5889 5889 5888 5888 5887 5886 5886 5886 5886 5886 5885 5885
5932 5931 5929 5928 5926 5924 5922 5920 5918 5916 5914 5912 5910 5909 5907 5906 5904 5903 5901 5900 5899 5898 5897 5895 5894 5893 5892 5891 5890 5889 5888 5888 5887 5886 5886 5885 5885 5885 5885 5884 5884 5884 5884
5931 5930 5928 5927 5926 5924 5922 5920 5918 5916 5914 5912 5911 5909 5907 5906 5904 5902 5901 5900 5899 5898 5896 5895 5894 5892 5891 5890 5889 5888 5887 5886 5886 5885 5884 5884 5883 5883 5883 5883 5882 5882 5882
5929 5928 5927 5926 5924 5923 5921 5919 5917 5916 5914 5912 5910 5909 5907 5905 5904 5902 5900 5899 5898 5897 5895 5894 5892 5891 5890 5889 5888 5887 5886 5885 5885 5884 5883 5882 5882 5881 5881 5881 5880 5880 5880
5927 5926 5925 5924 5923 5921 5920 5918 5916 5915 5913 5911 5910 5908 5906 5905 5903 5901 5900 5898 5897 5895 5894 5892 5891 5890 5889 5888 5887 5886 5885 5884 5883 5882 5882 5881 5880 5880 5879 5879 5878 5878 5878
5924 5923 5922 5921 5920 5919 5918 5916 5914 5913 5911 5910 5908 5907 5905 5904 5902 5900 5899 5897 5896 5894 5893 5891 5890 5888 5887 5887 5886 5885 5884 5882 5881 5880 5880 5879 5878 5878 5877 5877 5876 5875 5875
5920 5920 5919 5919 5917 5916 5915 5914 5912 5911 5909 5908 5907 5905 5904 5903 5901 5899 5897 5896 5894 5893 5892 5890 5889 5887 5886 5885 5884 5883 5882 5881 5879 5878 5878 5877 5876 5876 5875 5874 5873 5872 5872
5916 5915 5915 5915 5914 5913 5912 5911 5910 5909 5907 5906 5905 5903 5902 5901 5899 5898 5896 5894 5893 5892 5890 5889 5888 5887 5885 5884 5883 5882 5880 5879 5877 5876 5875 5875 5874 5873 5872 5871 5870 5869 5869
5911 5911 5911 5911 5910 5909 5909 5908 5907 5906 5905 5904 5903 5901 5900 5899 5898 5896 5894 5893 5891 5890 5889 5887 5886 5885 5884 5883 5881 5880 5878 5876 5875 5874 5873 5872 5871 5870 5869 5868 5867 5866 5865
5906 5906 5906 5906 5906 5905 5905 5904 5904 5903 5902 5901 5900 5899 5898 5897 5895 5894 5892 5891 5889 5888 5887 5885 5884 5883 5881 5880 5879 5877 5875 5874 5872 5871 5870 5869 5868 5867 5866 5865 5864 5863 5862
5901 5901 5901 5901 5901 5901 5901 5900 5900 5899 5898 5897 5897 5896 5895 5894 5893 5891 5890 5888 5887 5886 5885 5883 5882 5880 5879 5878 5876 5874 5872 5871 5869 5868 5867 5866 5865 5864 5863 5862 5860 5859 5858
5895 5895 5896 5896 5896 5896 5896 5896 5895 5895 5894 5894 5893 5892 5891 5890 5889 5888 5887 5885 5884 5883 5881 5880 5879 5877 5876 5874 5873 5871 5869 5867 5866 5865 5864 5862 5861 5860 5859 5858 5856 5855 5854
5889 5889 5890 5890 5890 5890 5890 5890 5890 5890 5890 5889 5889 5888 5887 5886 5885 5884 5883 5882 5881 5880 5878 5877 5875 5874 5872 5871 5869 5868 5866 5864 5863 5861 5860 5858 5857 5855 5854 5853 5852 5851 5849
5882 5883 5884 5884 5884 5885 5885 5885 5885 5884 5884 5883 5884 5883 5883 5882 5881 5880 5879 5878 5877 5876 5874 5873 5871 5870 5868 5867 5866 5864 5862 5861 5859 5857 5856 5854 5853 5851 5850 5849 5847 5846 5845
5875 5876 5877 5878 5878 5878 5879 5879 5879 5879 5878 5878 5878 5878 5877 5876 5876 5875 5874 5873 5872 5871 5869 5868 5866 5865 5863 5862 5861 5860 5858 5857 5855 5853 5851 5850 5848 5847 5845 5844 5842 5841 5839
5869 5869 5870 5871 5872 5872 5872 5872 5873 5873 5873 5873 5873 5872 5871 5871 5870 5870 5869 5868 5867 5866 5864 5863 5861 5860 5859 5857 5856 5855 5853 5852 5850 5848 5846 5845 5843 5842 5840 5839 5837 5835 5833
5862 5862 5863 5864 5865 5866 5866 5866 5866 5867 5867 5867 5867 5867 5866 5866 5865 5864 5863 5862 5861 5860 5858 5857 5856 5855 5854 5852 5851 5850 5848 5847 5845 5843 5841 5839 5838 5836 5835 5833 5832 5829 5827
5854 5855 5857 5857 5858 5859 5859 5860 5860 5861 5861 5861 5861 5860 5860 5859 5859 5858 5857 5856 5855 5854 5852 5850 5850 5849 5848 5847 5846 5845 5843 5841 5839 5837 5835 5834 5832 5831 5829 5827 5825 5823 5821
5847 5849 5850 5851 5851 5852 5853 5853 5853 5853 5854 5854 5854 5854 5853 5853 5852 5852 5851 5850 5849 5848 5846 5844 5843 5842 5841 5840 5839 5838 5837 5835 5834 5831 5829 5828 5826 5824 5823 5820 5818 5816 5814
5839 5841 5842 5843 5844 5844 5845 5846 5846 5846 5847 5847 5847 5847 5846 5846 5846 5845 5844 5843 5842 5841 5840 5838 5836 5835 5834 5833 5832 5831 5830 5828 5827 5825 5823 5821 5819 5817 5815 5813 5811 5809 5807
5831 5833 5834 5835 5836 5837 5837 5838 5839 5839 5839 5840 5839 5839 5839 5839 5838 5837 5837 5836 5835 5834 5832 5831 5830 5829 5828 5827 5826 5824 5823 5821 5820 5818 5816 5814 5812 5810 5808 5806 5803 5801 5799
5823 5824 5825 5827 5828 5828 5829 5830 5831 5831 5831 5831 5831 5831 5831 5830 5830 5829 5829 5828 5827 5826 5824 5824 5823 5822 5821 5819 5818 5817 5815 5814 5812 5810 5808 5806 5804 5802 5800 5798 5796 5794 5791